sat.trackr.live / text

‹ back to catalog

STARLINK-32417

NORAD 61673 · 2024-193N

PAYLOAD ACTIVE UNKNOWN

§ Identity

Operator
Country
US
Launch date
2024-10-26
Launch site
AFETR
Launch vehicle
Mass (kg)
RCS (m²)

Purposes: comms

External: N2YO · Heavens-Above · Gunter

§ Orbital elements

Epoch: 2026-09-21T16:27:44.516160Z

Period
94.01 min
Inclination
53.1595°
Eccentricity
0.0001205
Mean motion
15.31704721 rev/d
Perigee alt
469.9 km
Apogee alt
471.6 km
Semi-major
6,848.9 km
B*
1.8631e-5
RAAN
259.2694°
Arg perigee
88.0417°
Mean anomaly
272.0722°
Rev number
10,655

§ Raw data

STARLINK-324171 61673U 24193N   26264.68593190  .00000213  00000+0  18631-4 0  99912 61673  53.1595 259.2694 0001205  88.0417 272.0722 15.31704721106556

JSON: /api/v1/satellites/61673 · /tle

For live sub-satellite position, see the globe view (requires WebGL).

§ Visibility from observer

Set your observer location to see the next 7 days of passes ≥ 10°. The values pass through the URL so the page stays shareable.

No JS? Fill the form by hand. The geolocation button needs JavaScript.